WetterOnline ( https://www.wetteronline.ch )

Wetter aktuell Regen

Aktuelles Wetter: Zwiesel (613m)

6-stündlich | Neueste Meldungen
Ortszeit Temperatur Wetter
Mo, 16.09. 2:00 10.3° C wolkig
So, 15.09. 20:00 16.0° C leicht bewölkt
So, 15.09. 14:00 21.4° C wolkenlos
So, 15.09. 8:00 8.8° C wolkenlos
So, 15.09. 2:00 11.0° C wolkig
Sa, 14.09. 20:00 15.7° C wolkenlos
Sa, 14.09. 14:00 21.5° C wolkig
Sa, 14.09. 8:00 14.4° C bewölkt
Ortszeit Temperatur Wetter
Mo, 16.09. 6:00 7.5° C Nebel
Mo, 16.09. 5:50 7.5° C Nebel
Mo, 16.09. 5:40 7.3° C Nebel
Mo, 16.09. 5:30 7.9° C Nebel
Mo, 16.09. 5:20 7.9° C Nebel
Mo, 16.09. 5:10 8.0° C Nebel
Mo, 16.09. 5:00 8.1° C Nebel
Mo, 16.09. 4:30 8.8° C fast wolkenlos
Mo, 16.09. 4:00 9.0° C wolkenlos
Mo, 16.09. 3:30 9.4° C Nebel
Mo, 16.09. 3:00 9.5° C wolkenlos
Ortszeit Relative Feuchte Sichtweite
Mo, 16.09. 2:00 97% 6 km
So, 15.09. 20:00 79% 45 km
So, 15.09. 14:00 53% 45 km
So, 15.09. 8:00 97% 10 km
So, 15.09. 2:00 95% 12 km
Sa, 14.09. 20:00 74% 55 km
Sa, 14.09. 14:00 54% 60 km
Sa, 14.09. 8:00 79% 45 km
Ortszeit Relative Feuchte Sichtweite
Mo, 16.09. 6:00 98% 100 m
Mo, 16.09. 5:50 98% -
Mo, 16.09. 5:40 99% -
Mo, 16.09. 5:30 99% 0.3 km
Mo, 16.09. 5:20 99% -
Mo, 16.09. 5:10 98% -
Mo, 16.09. 5:00 99% 0.5 km
Mo, 16.09. 4:30 97% 2.3 km
Mo, 16.09. 4:00 98% 7 km
Mo, 16.09. 3:30 98% 0.6 km
Mo, 16.09. 3:00 98% 8 km
Ortszeit Niederschlagsmenge Niederschlagsart
Mo, 16.09. 2:00 0.0 l/m2 in 6 Std. -
So, 15.09. 20:00 0.0 l/m2 in 12 Std. -
So, 15.09. 14:00 0.0 l/m2 in 6 Std. -
So, 15.09. 8:00 0.0 l/m2 in 12 Std. -
So, 15.09. 2:00 0.0 l/m2 in 6 Std. -
Sa, 14.09. 20:00 0.0 l/m2 in 12 Std. -
Sa, 14.09. 14:00 0.0 l/m2 in 6 Std. -
Sa, 14.09. 8:00 0.0 l/m2 in 12 Std. -
Ortszeit Niederschlagsmenge Niederschlagsart
Mo, 16.09. 6:00 0.0 l/m2 in 1 Std. -
Mo, 16.09. 5:50 keine Meldung -
Mo, 16.09. 5:40 keine Meldung -
Mo, 16.09. 5:30 0.0 l/m2 in 1 Std. -
Mo, 16.09. 5:20 keine Meldung -
Mo, 16.09. 5:10 keine Meldung -
Mo, 16.09. 5:00 0.0 l/m2 in 1 Std. -
Mo, 16.09. 4:30 0.0 l/m2 in 1 Std. -
Mo, 16.09. 4:00 0.0 l/m2 in 1 Std. -
Mo, 16.09. 3:30 0.0 l/m2 in 1 Std. -
Mo, 16.09. 3:00 0.0 l/m2 in 1 Std. -
Ortszeit Stärke Spitze Richtung
km/h Bft. km/h Grad Sektor
Mo, 16.09. 2:00 4 1 7 130° SO
So, 15.09. 20:00 4 1 25 320° NW
So, 15.09. 14:00 9 2 19 220° SW
So, 15.09. 8:00 4 1 7 190° S
So, 15.09. 2:00 4 1 14 140° SO
Sa, 14.09. 20:00 7 2 32 30° NO
Sa, 14.09. 14:00 4 1 22 210° SW
Sa, 14.09. 8:00 11 2 18 10° N
Ortszeit Stärke Spitze Richtung
km/h Bft. km/h Grad Sektor
Mo, 16.09. 6:00 4 1 7 20° N
Mo, 16.09. 5:50 4 1 - 20° N
Mo, 16.09. 5:40 2 1 - 320° NW
Mo, 16.09. 5:30 2 1 4 220° SW
Mo, 16.09. 5:20 2 1 - 220° SW
Mo, 16.09. 5:10 2 1 - 190° S
Mo, 16.09. 5:00 0 0 4 - -
Mo, 16.09. 4:30 2 1 6 310° NW
Mo, 16.09. 4:00 4 1 7 190° S
Mo, 16.09. 3:30 0 0 4 - -
Mo, 16.09. 3:00 4 1 7 150° SO
Ortszeit Untergrenze Bedeckung Gattung
total tief tief mittel hoch
Mo, 16.09. 2:00 10500 m 7/8 0/8 - - -
So, 15.09. 20:00 12000 m 6/8 0/8 - - -
So, 15.09. 14:00 - 0/8 0/8 - - -
So, 15.09. 8:00 - 0/8 0/8 - - -
So, 15.09. 2:00 810 m 5/8 5/8 - - -
Sa, 14.09. 20:00 - 0/8 0/8 - - -
Sa, 14.09. 14:00 1500 m 6/8 4/8 - - -
Sa, 14.09. 8:00 1080 m 7/8 7/8 - - -
Ortszeit Bedeckungsgrad in Achtel und Wolkenuntergrenze
Mo, 16.09. 6:00 7(<30m)
Mo, 16.09. 5:50 7(<30m)
Mo, 16.09. 5:40 7(<30m)
Mo, 16.09. 5:30 7(<30m)
Mo, 16.09. 5:20 7(<30m)
Mo, 16.09. 5:10 5(<30m)
Mo, 16.09. 5:00 1(30m)
Mo, 16.09. 4:30 2(10500m)
Mo, 16.09. 4:00 keine Wolken
Mo, 16.09. 3:30 keine Wolken
Mo, 16.09. 3:00 keine Wolken
Ortszeit Luftdruck NN (hPa) Tendenz (hPa in 3 Std.)
Mo, 16.09. 2:00 1023 - 0,3
So, 15.09. 20:00 1022 - 0,6
So, 15.09. 14:00 1023 - 1,8
So, 15.09. 8:00 1028 - 0,7
So, 15.09. 2:00 1029 - 1,1
Sa, 14.09. 20:00 1029 + 0,1
Sa, 14.09. 14:00 1029 - 1,2
Sa, 14.09. 8:00 1032 + 0,5
Ortszeit Luftdruck NN (hPa) Tendenz (hPa in 3 Std.)
Mo, 16.09. 6:00 1023 - 0,8
Mo, 16.09. 5:50 1023 keine Meldung
Mo, 16.09. 5:40 1023 keine Meldung
Mo, 16.09. 5:30 1023 - 0,8
Mo, 16.09. 5:20 1023 keine Meldung
Mo, 16.09. 5:10 1023 keine Meldung
Mo, 16.09. 5:00 1023 - 0,6
Mo, 16.09. 4:30 1023 - 0,8
Mo, 16.09. 4:00 1023 - 0,6
Mo, 16.09. 3:30 1023 - 0,6
Mo, 16.09. 3:00 1023 - 0,7
Ortszeit Schneehöhe (cm)
Mo, 16.09. 2:00 -
So, 15.09. 20:00 -
So, 15.09. 14:00 -
So, 15.09. 8:00 -
So, 15.09. 2:00 -
Sa, 14.09. 20:00 -
Sa, 14.09. 14:00 -
Sa, 14.09. 8:00 -
Ortszeit Schneehöhe (cm)
Mo, 16.09. 6:00 -
Mo, 16.09. 5:50 -
Mo, 16.09. 5:40 -
Mo, 16.09. 5:30 -
Mo, 16.09. 5:20 -
Mo, 16.09. 5:10 -
Mo, 16.09. 5:00 -
Mo, 16.09. 4:30 -
Mo, 16.09. 4:00 -
Mo, 16.09. 3:30 -
Mo, 16.09. 3:00 -
Link zu dieser Seite / Seite empfehlen

Das Wetter in ...